Location: Newark
(46.7000°N, 60.6000°W)
Time: 20:46:35
(UTC+00:00)

N. Korean satellite - Pass Details

Date: 25 September 2020
Orbit: 452 x 505 km, 97.2° (Epoch: 28 October)

Event Time Altitude Azimuth Distance (km) Brightness Sun altitude
Rises 08:27:11 0° 33° (NNE) 2,595 11.0 -15.5°
Reaches altitude 10° 08:30:32 10° 66° (ENE) 1,692 10.7 -15.0°
Maximum altitude 08:31:55 12° 89° (E) 1,574 10.4 -14.7°
Drops below altitude 10° 08:33:17 10° 111° (ESE) 1,675 10.1 -14.5°
Sets 08:36:33 0° 145° (SE) 2,533 10.5 -14.0°
